Location: Antioch Baptist Church
(32.7160°N, 96.7483°W)
Time: 07:25:12
(UTC+00:00)

SL-16 R/B - Pass Details

Date: 05 December 2023
Orbit: 842 x 846 km, 71.0° (Epoch: 04 March)

Event Time Altitude Azimuth Distance (km) Brightness Sun altitude
Rises 23:32:03 0° 337° (NNW) 3,406 5.3 -3.0°
Reaches altitude 10° 23:34:30 10° 335° (NNW) 2,467 4.7 -3.5°
Maximum altitude 23:40:08 72° 252° (WSW) 884 2.6 -4.5°
Drops below altitude 10° 23:45:44 10° 169° (SSE) 2,450 4.8 -5.6°
Sets 23:48:10 0° 167° (SSE) 3,381 5.5 -6.1°
